#timestamp,LO_Frequency,Hit,StdDev 
1681761615.3,286046996.9,N
1681761635.2,286046998.9,N
1681761655.0,286046996.6,N
1681761655.9,286046996.6,N
1681761675.8,286046999.6,N
1681761695.6,286046999.0,N
1681761715.4,286046999.1,N
1681761735.3,286046999.5,N
1681761755.1,286046999.3,N
1681761775.9,286046998.4,N
1681761795.7,286046996.6,N
1681761815.5,286046996.5,N
1681761835.4,286046999.0,N
1681761855.2,286046998.3,N
1681761875.0,286046999.0,N
1681761876.0,286046999.0,N
1681761895.8,286046999.1,N
1681761915.6,286046996.5,Y
1681761935.5,286047001.1,P
1681761955.3,286047000.3,N
1681761975.1,286046999.8,N
1681761995.9,286047000.1,N
1681762015.7,286047001.0,N
1681762035.6,286047000.0,N
1681762055.4,286047002.3,N
1681762075.2,286047000.2,N
1681762095.1,286046998.2,N
1681762096.0,286046998.2,N
1681762115.8,286047000.8,N
1681762135.7,286047000.7,N
1681762155.5,286047002.3,N
1681762175.3,286047002.8,N
1681762195.2,286047000.3,N
1681762215.0,286046999.9,N
1681762215.9,286046999.9,N
1681762235.8,286046998.1,N
1681762255.6,286047000.9,N
1681762275.4,286047000.1,N
1681762295.3,286047002.3,N
1681762315.1,286047002.8,N
1681762335.8,286047001.0,N
1681762355.7,286047002.8,N
1681762375.5,286047000.3,N
1681762395.4,286047000.4,N
1681762415.2,286046998.9,N
1681762435.0,286046998.5,N
1681762435.9,286046998.5,N
1681762455.8,286047000.8,N
1681762475.6,286047000.0,N
1681762495.4,286046999.8,N
1681762515.3,286047000.4,N
1681762535.1,286047000.4,N
1681762555.9,286047000.1,N
1681762575.7,286046999.9,N
1681762595.5,286047000.9,N
1681762615.4,286047002.7,N
1681762635.2,286047000.7,N
1681762655.1,286047000.1,N
1681762656.0,286047000.1,N
1681762675.8,286047000.7,N
1681762695.6,286047000.5,N
1681762715.5,286047000.8,N
1681762735.3,286047001.1,N
1681762755.2,286046999.9,N
1681762775.0,286047002.7,N
1681762775.9,286047002.7,N
1681762795.7,286047000.0,N
1681762815.6,286047000.2,N
1681762835.4,286047002.4,N
1681762855.3,286047001.7,N
1681762875.1,286046999.7,N
1681762876.0,286046999.7,N
1681762895.8,286047000.4,N
1681762915.7,286047000.2,N
1681762935.5,286047000.4,N
1681762955.3,286046999.7,N
1681762975.2,286047002.2,N
1681762995.0,286047002.4,N
1681762995.9,286047002.4,N
1681763015.8,286047000.1,N
1681763035.6,286047002.7,N
1681763055.4,286046999.9,N
1681763075.3,286047002.5,N
1681763095.1,286047001.0,N
1681763115.9,286047001.0,N
1681763135.7,286046998.2,N
1681763155.5,286047000.8,N
1681763175.4,286046998.2,N
1681763195.2,286047000.7,N
1681763215.1,286047000.4,N
1681763216.0,286047000.4,N
1681763235.8,286047002.4,N
1681763255.6,286047001.8,N
1681763275.5,286047001.7,N
1681763295.3,286047001.8,N
1681763315.1,286047001.9,N
1681763335.9,286047001.3,N
1681763355.7,286047003.7,Y
1681763375.6,286047004.4,P
1681763395.4,286047004.0,N
1681763415.2,286047002.6,N
1681763435.1,286047001.0,N
1681763436.0,286047001.0,N
1681763455.8,286047000.4,N
1681763475.7,286047000.3,N
1681763495.5,286046999.8,N
1681763515.3,286047002.7,N
1681763535.2,286047002.5,N
1681763555.9,286047002.3,N
1681763575.7,286047002.7,N
1681763595.6,286047002.4,N
1681763615.2,286047001.9,N
1681763635.1,286047000.1,N
1681763636.0,286047000.1,N
1681763655.8,286047002.7,N
1681763675.0,286046999.7,N
1681763675.9,286046999.7,N
1681763695.8,286046999.7,N
1681763715.6,286047000.4,N
1681763735.4,286046999.8,N
1681763755.3,286047000.3,N
1681763775.1,286047000.4,N
1681763795.9,286046998.1,N
1681763815.7,286046998.3,N
1681763835.5,286047001.2,N
1681763855.4,286046998.1,N
1681763875.2,286046998.9,N
1681763895.1,286046998.4,N
1681763896.0,286046998.4,N
1681763915.8,286046998.3,N
1681763935.7,286046999.5,N
1681763955.5,286046999.0,N
1681763975.3,286046996.9,N
1681763995.2,286046996.7,N
1681764015.0,286046999.2,N
1681764015.9,286046999.2,N
1681764035.8,286046997.8,N
1681764055.6,286046995.1,N
1681764075.4,286046998.0,N
1681764095.3,286046995.4,N
1681764115.1,286046996.3,N
1681764135.9,286046995.1,N
1681764155.7,286046995.9,N
1681764175.5,286046995.7,N
1681764195.4,286046993.3,Y
1681764215.2,286046995.9,P
1681764235.1,286046994.1,P
1681764236.0,286046994.1,P
1681764255.8,286046991.7,Y
1681764275.6,286047001.2,P
1681764295.5,286046999.2,N
1681764315.3,286046999.4,N
1681764335.1,286046998.6,N
1681764355.9,286046999.2,N
1681764375.7,286046999.4,N
1681764395.6,286046998.9,N
1681764415.4,286046999.1,N
1681764435.2,286047001.1,N
1681764455.1,286046999.2,N
1681764456.0,286046999.2,N
1681764475.8,286046998.8,N
1681764495.6,286046999.5,N
1681764515.5,286046997.7,N
1681764535.3,286046997.0,N
1681764555.2,286046996.7,N
1681764575.9,286046997.1,N
1681764595.7,286046998.0,N
1681764615.6,286046994.9,Y
1681764635.4,286046999.5,P
1681764655.2,286046997.8,P
1681764675.1,286046997.6,P
1681764676.0,286046997.6,Y
1681764695.8,286046999.3,P
1681764715.7,286046999.4,N
1681764735.5,286046999.6,N
1681764755.3,286046996.5,Y
1681764775.2,286046998.4,P
1681764795.0,286046998.7,P
1681764795.9,286046998.7,P
1681764815.8,286046999.3,N
1681764835.6,286046998.9,Y
1681764855.4,286047000.8,P
1681764875.3,286046998.8,N
1681764895.1,286046999.1,N
1681764915.8,286046998.9,N
1681764935.7,286047001.2,N
1681764955.5,286047000.5,N
1681764975.4,286047000.9,N
1681764995.2,286047001.0,N
1681765015.0,286046998.8,N
1681765015.9,286046998.8,N
1681765035.8,286047001.1,N
1681765055.6,286046998.5,N
1681765075.4,286047000.9,N
1681765095.3,286047001.2,N
1681765115.1,286046998.1,N
1681765135.9,286046996.6,Y
1681765155.7,286046996.7,P
1681765175.5,286046996.9,N
1681765195.4,286046999.6,N
